GW1031 Weather Reports


Display with metric or nautical units.
time (UTC)temp
F
wind
direction
speed
MPH
gust
MPH
rain 1hr
in
rain 24hr
in
rain mn
in
humidity
%
barometer
mb
20240520094408 37 260 0.0 0.0 0.00 0.00 0.00 79 1016.4
20240520093907 37 255 0.0 0.0 0.00 0.00 0.00 78 1016.4
20240520093408 37 279 0.0 1.0 0.00 0.00 0.00 82 1016.4
20240520092906 37 236 0.0 0.0 0.00 0.00 0.00 81 1016.5
20240520092405 37 24 0.0 0.0 0.00 0.00 0.00 82 1016.5
20240520091904 37 59 0.0 0.0 0.00 0.00 0.00 84 1016.5
20240520091405 37 76 1.0 2.0 0.00 0.00 0.00 81 1016.4
20240520090903 37 248 0.0 0.0 0.00 0.00 0.00 79 1016.3
20240520090402 37 32 0.0 0.0 0.00 0.00 0.00 80 1016.3
20240520085900 38 24 0.0 0.0 0.00 0.00 0.00 81 1016.5
20240520085358 37 255 0.0 0.0 0.00 0.00 0.00 80 1016.4
20240520084856 37 12 0.0 0.0 0.00 0.00 0.00 81 1016.7
20240520084354 38 16 0.0 0.0 0.00 0.00 0.00 82 1016.3
20240520083853 38 4 0.0 0.0 0.00 0.00 0.00 81 1016.7
20240520083352 38 5 0.0 0.0 0.00 0.00 0.00 82 1016.7
20240520082851 38 17 0.0 0.0 0.00 0.00 0.00 82 1016.8
20240520082350 38 21 0.0 0.0 0.00 0.00 0.00 81 1016.7
20240520081848 39 24 0.0 0.0 0.00 0.00 0.00 80 1016.4
20240520081347 38 264 0.0 0.0 0.00 0.00 0.00 75 1016.5
20240520080846 38 17 0.0 0.0 0.00 0.00 0.00 78 1016.7
20240520080346 38 17 0.0 0.0 0.00 0.00 0.00 79 1016.5
20240520075844 38 22 0.0 0.0 0.00 0.00 0.00 80 1016.8
20240520075341 38 17 0.0 0.0 0.00 0.00 0.00 80 1016.7
20240520074840 39 20 0.0 0.0 0.00 0.00 0.00 79 1016.7
20240520074338 40 26 0.0 0.0 0.00 0.00 0.00 80 1016.7
20240520073837 39 95 0.0 0.0 0.00 0.00 0.00 76 1016.7
20240520073335 40 44 0.0 0.0 0.00 0.00 0.00 80 1016.7
20240520072834 40 63 0.0 0.0 0.00 0.00 0.00 71 1016.9
20240520072331 40 21 0.0 0.0 0.00 0.00 0.00 73 1016.8
20240520071829 40 27 0.0 0.0 0.00 0.00 0.00 75 1017.0
20240520071327 41 34 0.0 0.0 0.00 0.00 0.00 73 1016.9
20240520070825 41 28 0.0 0.0 0.00 0.00 0.00 74 1016.8
20240520070324 41 36 0.0 0.0 0.00 0.00 0.00 75 1016.7
20240520065822 41 228 0.0 0.0 0.00 0.00 0.00 69 1016.8
20240520065320 41 39 0.0 0.0 0.00 0.00 0.00 71 1016.8
20240520064820 41 30 0.0 0.0 0.00 0.00 0.00 76 1016.5
20240520064319 41 25 0.0 0.0 0.00 0.00 0.00 76 1016.7
20240520063818 42 30 0.0 0.0 0.00 0.00 0.00 75 1016.7
20240520063318 41 36 0.0 0.0 0.00 0.00 0.00 76 1016.9
20240520062818 42 45 0.0 0.0 0.00 0.00 0.00 77 1016.9
20240520062316 42 30 0.0 0.0 0.00 0.00 0.00 74 1016.9
20240520061815 42 29 0.0 0.0 0.00 0.00 0.00 73 1017.0
20240520061314 42 31 0.0 0.0 0.00 0.00 0.00 72 1017.0
20240520060812 42 55 0.0 0.0 0.00 0.00 0.00 72 1017.0
20240520060312 43 220 0.0 0.0 0.00 0.00 0.00 68 1016.8
20240520055811 42 11 0.0 0.0 0.00 0.00 0.00 67 1016.7
20240520055309 44 31 0.0 0.0 0.00 0.00 0.00 71 1016.7
20240520054806 44 22 0.0 0.0 0.00 0.00 0.00 69 1016.7
20240520054305 44 2 0.0 0.0 0.00 0.00 0.00 65 1016.9
20240520053803 44 29 0.0 0.0 0.00 0.00 0.00 66 1016.9
20240520053303 44 354 0.0 0.0 0.00 0.00 0.00 62 1016.9
20240520052802 44 11 0.0 0.0 0.00 0.00 0.00 64 1016.9
20240520052301 44 11 0.0 0.0 0.00 0.00 0.00 63 1017.0
20240520051800 44 36 0.0 0.0 0.00 0.00 0.00 62 1017.3
20240520051300 44 13 0.0 0.0 0.00 0.00 0.00 62 1017.1
20240520050759 45 52 0.0 0.0 0.00 0.00 0.00 63 1017.1
20240520050258 46 16 0.0 0.0 0.00 0.00 0.00 66 1016.9
20240520045756 46 15 0.0 0.0 0.00 0.00 0.00 61 1016.9
20240520045256 46 5 0.0 0.0 0.00 0.00 0.00 62 1016.9
20240520044754 47 29 0.0 0.0 0.00 0.00 0.00 68 1017.0
20240520044252 47 2 0.0 0.0 0.00 0.00 0.00 62 1017.1
20240520043750 46 290 0.0 0.0 0.00 0.00 0.00 60 1016.9
20240520043250 47 5 0.0 0.0 0.00 0.00 0.00 61 1016.9
20240520042749 48 350 0.0 0.0 0.00 0.00 0.00 58 1017.0
20240520042248 49 21 0.0 0.0 0.00 0.00 0.00 60 1017.0
20240520041748 49 16 0.0 0.0 0.00 0.00 0.00 58 1017.0
20240520041247 50 13 0.0 0.0 0.00 0.00 0.00 50 1016.9
20240520040746 49 314 0.0 0.0 0.00 0.00 0.00 47 1016.9
20240520040244 49 289 0.0 0.0 0.00 0.00 0.00 48 1016.8
20240520035743 49 5 0.0 0.0 0.00 0.00 0.00 50 1016.7
20240520035243 50 305 0.0 0.0 0.00 0.00 0.00 55 1016.8
20240520034742 51 285 0.0 0.0 0.00 0.00 0.00 52 1016.8
20240520034242 51 15 0.0 0.0 0.00 0.00 0.00 55 1016.5
20240520033740 51 73 0.0 1.0 0.00 0.00 0.00 50 1016.4
20240520033238 51 346 0.0 0.0 0.00 0.00 0.00 46 1016.2
20240520032738 51 346 0.0 0.0 0.00 0.00 0.00 48 1016.2
20240520032237 51 350 0.0 0.0 0.00 0.00 0.00 56 1016.2
20240520031736 51 341 0.0 0.0 0.00 0.00 0.00 56 1016.2
20240520031235 52 11 0.0 0.0 0.00 0.00 0.00 57 1016.0
20240520030733 52 32 0.0 0.0 0.00 0.00 0.00 60 1016.0
20240520030232 53 64 0.0 0.0 0.00 0.00 0.00 60 1016.0
20240520025731 54 258 0.0 0.0 0.00 0.00 0.00 48 1015.7
20240520025230 54 304 0.0 0.0 0.00 0.00 0.00 48 1015.9
20240520024729 54 291 0.0 0.0 0.00 0.00 0.00 46 1015.9
20240520024227 55 353 0.0 0.0 0.00 0.00 0.00 48 1015.8
20240520023726 56 353 0.0 0.0 0.00 0.00 0.00 50 1015.7
20240520023223 57 5 0.0 0.0 0.00 0.00 0.00 40 1015.7
20240520022722 58 0 0.0 0.0 0.00 0.00 0.00 48 1015.7
20240520022221 60 273 0.0 0.0 0.00 0.00 0.00 38 1015.7
20240520021720 61 269 0.0 0.0 0.00 0.00 0.00 31 1015.7
20240520021220 61 254 0.0 1.0 0.00 0.00 0.00 30 1015.6
20240520020719 62 249 0.0 1.0 0.00 0.00 0.00 29 1015.4
20240520020218 62 273 0.0 0.0 0.00 0.00 0.00 30 1015.4
20240520015717 63 276 0.0 0.0 0.00 0.00 0.00 29 1015.2
20240520015215 64 277 0.0 0.0 0.00 0.00 0.00 30 1015.4
20240520014713 66 280 1.0 1.0 0.00 0.00 0.00 26 1015.3
20240520014212 66 238 0.0 0.0 0.00 0.00 0.00 25 1015.1
20240520013710 68 277 1.0 1.0 0.00 0.00 0.00 23 1015.2
20240520013208 68 237 0.0 0.0 0.00 0.00 0.00 23 1015.2
20240520012706 69 248 1.0 1.0 0.00 0.00 0.00 23 1014.9
20240520012204 69 252 0.0 0.0 0.00 0.00 0.00 22 1015.2
20240520011703 70 284 3.0 5.0 0.00 0.00 0.00 19 1015.2
20240520011203 70 178 4.0 7.0 0.00 0.00 0.00 20 1015.2
20240520010703 71 224 2.0 3.0 0.00 0.00 0.00 21 1015.2
20240520010202 71 72 0.0 0.0 0.00 0.00 0.00 22 1014.9
20240520005701 72 162 2.0 3.0 0.00 0.00 0.00 19 1014.9
20240520005200 72 238 3.0 5.0 0.00 0.00 0.00 19 1014.8
20240520004659 72 286 2.0 2.0 0.00 0.00 0.00 19 1014.7
20240520004158 73 168 1.0 1.0 0.00 0.00 0.00 19 1014.8
20240520003657 74 211 1.0 2.0 0.00 0.00 0.00 19 1014.8
20240520003155 75 277 0.0 0.0 0.00 0.00 0.00 19 1014.7
20240520002654 75 210 3.0 3.0 0.00 0.00 0.00 18 1014.7
20240520002152 76 262 3.0 3.0 0.00 0.00 0.00 18 1014.9
20240520001651 76 255 3.0 5.0 0.00 0.00 0.00 18 1014.8
20240520001150 76 267 2.0 3.0 0.00 0.00 0.00 18 1014.7
20240520000649 76 193 0.0 1.0 0.00 0.00 0.00 20 1014.9
20240520000149 76 212 2.0 2.0 0.00 0.00 0.00 18 1014.8
20240519235648 77 165 2.0 2.0 0.00 0.00 0.00 19 1015.1
20240519235147 77 209 2.0 2.0 0.00 0.00 0.00 18 1014.8
20240519234647 78 339 4.0 5.0 0.00 0.00 0.00 17 1014.7
20240519234147 78 227 2.0 2.0 0.00 0.00 0.00 18 1014.7
20240519233646 77 314 1.0 1.0 0.00 0.00 0.00 18 1014.7
20240519233144 78 303 3.0 3.0 0.00 0.00 0.00 17 1014.9
20240519232643 78 246 1.0 1.0 0.00 0.00 0.00 17 1014.7
20240519232141 78 326 2.0 2.0 0.00 0.00 0.00 17 1014.9
20240519231640 77 67 2.0 2.0 0.00 0.00 0.00 18 1014.8
20240519231139 78 247 1.0 2.0 0.00 0.00 0.00 16 1014.9
20240519230639 78 304 2.0 2.0 0.00 0.00 0.00 19 1015.1
20240519230138 77 291 2.0 3.0 0.00 0.00 0.00 18 1014.7
20240519225637 78 66 2.0 3.0 0.00 0.00 0.00 16 1015.2
20240519225137 77 260 3.0 3.0 0.00 0.00 0.00 18 1014.9
20240519224637 78 286 4.0 5.0 0.00 0.00 0.00 15 1014.9
20240519224136 77 259 4.0 6.0 0.00 0.00 0.00 17 1014.9
20240519223635 77 214 2.0 2.0 0.00 0.00 0.00 18 1014.9
20240519223135 78 73 5.0 7.0 0.00 0.00 0.00 18 1015.1
20240519222633 78 191 2.0 3.0 0.00 0.00 0.00 18 1014.8
20240519222131 77 128 2.0 3.0 0.00 0.00 0.00 20 1015.1
20240519221630 77 313 6.0 10.0 0.00 0.00 0.00 18 1015.2
20240519221128 77 176 1.0 2.0 0.00 0.00 0.00 18 1015.1
20240519220628 77 144 2.0 2.0 0.00 0.00 0.00 18 1015.3
20240519220127 77 286 1.0 2.0 0.00 0.00 0.00 17 1014.9
20240519215626 78 21 2.0 3.0 0.00 0.00 0.00 18 1015.3
20240519215125 78 275 1.0 1.0 0.00 0.00 0.00 24 1015.3
20240519214624 78 170 1.0 2.0 0.00 0.00 0.00 18 1014.8
20240519214122 77 298 2.0 2.0 0.00 0.00 0.00 19 1015.3
20240519213620 77 221 3.0 5.0 0.00 0.00 0.00 18 1015.3
20240519213119 78 1 1.0 1.0 0.00 0.00 0.00 19 1015.2
20240519212618 78 213 2.0 5.0 0.00 0.00 0.00 19 1015.4
20240519212116 78 195 2.0 5.0 0.00 0.00 0.00 20 1015.7
20240519211615 78 267 3.0 5.0 0.00 0.00 0.00 18 1015.7
20240519211114 77 93 3.0 5.0 0.00 0.00 0.00 23 1015.3
20240519210612 77 311 6.0 8.0 0.00 0.00 0.00 20 1015.4
20240519210110 77 294 5.0 10.0 0.00 0.00 0.00 19 1015.7
20240519205611 77 158 1.0 2.0 0.00 0.00 0.00 25 1015.8
20240519205109 77 260 6.0 9.0 0.00 0.00 0.00 20 1015.7
20240519204607 74 6 1.0 1.0 0.00 0.00 0.00 29 1015.7
20240519204106 76 129 2.0 3.0 0.00 0.00 0.00 22 1015.8
20240519203604 77 158 4.0 6.0 0.00 0.00 0.00 19 1016.2
20240519203103 75 184 3.0 3.0 0.00 0.00 0.00 21 1015.8
20240519202600 75 218 3.0 5.0 0.00 0.00 0.00 20 1015.9
20240519202101 75 238 5.0 7.0 0.00 0.00 0.00 19 1015.9
20240519201559 74 247 4.0 7.0 0.00 0.00 0.00 21 1015.9
20240519201058 76 322 6.0 9.0 0.00 0.00 0.00 21 1015.8
20240519200557 77 9 2.0 2.0 0.00 0.00 0.00 22 1015.8
20240519200056 75 165 2.0 2.0 0.00 0.00 0.00 23 1015.8
20240519195556 74 243 2.0 3.0 0.00 0.00 0.00 23 1016.3
20240519195055 74 16 1.0 2.0 0.00 0.00 0.00 26 1015.9
20240519194553 77 335 3.0 3.0 0.00 0.00 0.00 22 1016.3
20240519194054 76 109 1.0 1.0 0.00 0.00 0.00 25 1016.2
20240519193552 75 321 0.0 1.0 0.00 0.00 0.00 27 1016.0
20240519193052 74 312 2.0 3.0 0.00 0.00 0.00 24 1016.2
20240519192551 74 58 1.0 1.0 0.00 0.00 0.00 29 1016.2
20240519192049 72 186 3.0 3.0 0.00 0.00 0.00 24 1016.5
20240519191547 75 226 4.0 7.0 0.00 0.00 0.00 22 1016.3
20240519191046 75 80 2.0 3.0 0.00 0.00 0.00 24 1016.7
20240519190545 74 336 1.0 1.0 0.00 0.00 0.00 26 1016.5
20240519190044 73 113 0.0 1.0 0.00 0.00 0.00 23 1016.5
20240519185543 73 289 0.0 1.0 0.00 0.00 0.00 25 1016.5
20240519185042 73 190 5.0 8.0 0.00 0.00 0.00 23 1017.0
20240519184539 72 117 1.0 2.0 0.00 0.00 0.00 24 1016.9
20240519184038 73 217 4.0 6.0 0.00 0.00 0.00 24 1016.9
20240519183536 72 103 1.0 1.0 0.00 0.00 0.00 27 1016.9
20240519183034 73 271 1.0 1.0 0.00 0.00 0.00 24 1017.0
20240519182532 73 346 1.0 1.0 0.00 0.00 0.00 27 1017.0
20240519182032 73 78 2.0 3.0 0.00 0.00 0.00 28 1016.9
20240519181530 73 150 3.0 5.0 0.00 0.00 0.00 24 1016.9
20240519181028 73 45 1.0 1.0 0.00 0.00 0.00 32 1017.3
20240519180527 72 246 0.0 1.0 0.00 0.00 0.00 26 1016.8
20240519180027 71 118 2.0 2.0 0.00 0.00 0.00 33 1016.9
20240519175526 70 324 1.0 1.0 0.00 0.00 0.00 31 1017.0
20240519175025 70 279 1.0 2.0 0.00 0.00 0.00 26 1017.0
20240519174523 71 80 1.0 1.0 0.00 0.00 0.00 30 1017.0
20240519174023 71 313 1.0 2.0 0.00 0.00 0.00 25 1017.1
20240519173521 70 252 3.0 3.0 0.00 0.00 0.00 26 1017.1
20240519173020 69 234 2.0 3.0 0.00 0.00 0.00 28 1017.3
20240519172519 70 254 3.0 5.0 0.00 0.00 0.00 25 1017.3
20240519172020 70 104 2.0 2.0 0.00 0.00 0.00 28 1017.3
20240519171518 70 67 1.0 1.0 0.00 0.00 0.00 27 1017.3
20240519171018 70 14 2.0 3.0 0.00 0.00 0.00 31 1017.4
20240519170517 70 63 1.0 2.0 0.00 0.00 0.00 34 1017.4
20240519170015 69 232 3.0 5.0 0.00 0.00 0.00 32 1017.4
20240519165513 68 68 0.0 1.0 0.00 0.00 0.00 28 1017.5
20240519165013 68 63 3.0 3.0 0.00 0.00 0.00 29 1017.5
20240519164513 68 227 1.0 1.0 0.00 0.00 0.00 26 1017.6
20240519164010 68 318 1.0 2.0 0.00 0.00 0.00 28 1017.3
20240519163508 66 346 0.0 1.0 0.00 0.00 0.00 36 1017.9
20240519163008 66 36 0.0 0.0 0.00 0.00 0.00 42 1017.9
20240519162506 66 74 0.0 1.0 0.00 0.00 0.00 34 1017.8
20240519162004 65 121 2.0 2.0 0.00 0.00 0.00 36 1017.9
20240519161503 64 337 1.0 2.0 0.00 0.00 0.00 35 1018.1
20240519161002 63 70 1.0 2.0 0.00 0.00 0.00 38 1018.4
20240519160501 63 25 0.0 1.0 0.00 0.00 0.00 34 1018.4
20240519155959 62 356 0.0 1.0 0.00 0.00 0.00 44 1018.4
20240519155458 62 72 0.0 0.0 0.00 0.00 0.00 45 1018.4
20240519154957 62 74 0.0 1.0 0.00 0.00 0.00 39 1018.5
20240519154456 62 45 0.0 1.0 0.00 0.00 0.00 42 1018.6
20240519153954 61 84 2.0 2.0 0.00 0.00 0.00 38 1018.8
20240519153453 61 28 0.0 1.0 0.00 0.00 0.00 37 1018.5
20240519152953 60 66 0.0 0.0 0.00 0.00 0.00 43 1018.7
20240519152451 59 47 0.0 1.0 0.00 0.00 0.00 45 1018.8
20240519151950 59 72 2.0 2.0 0.00 0.00 0.00 46 1018.8
20240519151449 58 14 0.0 1.0 0.00 0.00 0.00 50 1018.8
20240519150948 58 18 1.0 1.0 0.00 0.00 0.00 44 1019.1
20240519150446 57 65 1.0 1.0 0.00 0.00 0.00 52 1019.0
20240519145944 57 78 2.0 2.0 0.00 0.00 0.00 49 1019.2
20240519145443 57 61 2.0 2.0 0.00 0.00 0.00 47 1019.2
20240519144943 57 29 0.0 0.0 0.00 0.00 0.00 50 1019.1
20240519144442 56 34 0.0 0.0 0.00 0.00 0.00 55 1019.1
20240519143941 57 41 0.0 0.0 0.00 0.00 0.00 55 1019.2
20240519143440 55 60 1.0 1.0 0.00 0.00 0.00 54 1019.3
20240519142940 56 35 1.0 1.0 0.00 0.00 0.00 50 1019.7
20240519142439 56 9 1.0 1.0 0.00 0.00 0.00 48 1019.2
20240519141937 55 34 0.0 0.0 0.00 0.00 0.00 55 1019.2
20240519141437 55 47 0.0 0.0 0.00 0.00 0.00 52 1019.2
20240519140937 56 67 1.0 1.0 0.00 0.00 0.00 52 1019.5
20240519140436 54 46 0.0 0.0 0.00 0.00 0.00 57 1019.1
20240519135935 53 37 0.0 0.0 0.00 0.00 0.00 59 1019.1
20240519135434 53 67 0.0 0.0 0.00 0.00 0.00 57 1019.3
20240519134933 51 55 0.0 0.0 0.00 0.00 0.00 56 1019.3
20240519134432 52 74 1.0 2.0 0.00 0.00 0.00 55 1019.3
20240519133930 51 40 0.0 0.0 0.00 0.00 0.00 63 1019.1
20240519133429 49 34 0.0 0.0 0.00 0.00 0.00 65 1019.2
20240519132927 47 54 0.0 0.0 0.00 0.00 0.00 71 1019.3
20240519132426 45 23 1.0 1.0 0.00 0.00 0.00 80 1019.3
20240519131925 44 67 0.0 0.0 0.00 0.00 0.00 79 1019.3
20240519131423 44 167 0.0 0.0 0.00 0.00 0.00 80 1019.1
20240519130922 43 44 0.0 1.0 0.00 0.00 0.00 82 1019.1
20240519130420 42 64 0.0 0.0 0.00 0.00 0.00 85 1019.2
20240519125920 41 243 0.0 1.0 0.00 0.00 0.00 85 1019.1
20240519125419 41 328 0.0 0.0 0.00 0.00 0.00 86 1019.0
20240519124918 41 329 0.0 0.0 0.00 0.00 0.00 86 1018.8
20240519124417 40 328 0.0 0.0 0.00 0.00 0.00 87 1019.1
20240519123912 40 338 0.0 0.0 0.00 0.00 0.00 87 1019.1
20240519123411 40 336 0.0 0.0 0.00 0.00 0.00 86 1019.0
20240519122909 41 341 0.0 0.0 0.00 0.00 0.00 85 1019.0
20240519122406 41 272 0.0 0.0 0.00 0.00 0.00 84 1019.0
20240519121906 41 351 0.0 0.0 0.00 0.00 0.00 83 1018.8
20240519121405 41 36 0.0 0.0 0.00 0.00 0.00 86 1018.6
20240519120903 41 316 0.0 0.0 0.00 0.00 0.00 84 1018.7
20240519120401 41 221 0.0 0.0 0.00 0.00 0.00 83 1018.5
20240519115901 41 330 0.0 0.0 0.00 0.00 0.00 82 1018.6
20240519115401 42 263 0.0 0.0 0.00 0.00 0.00 81 1018.6
20240519114900 42 268 0.0 1.0 0.00 0.00 0.00 81 1018.7
20240519114359 42 213 0.0 0.0 0.00 0.00 0.00 80 1018.7
20240519113858 42 273 0.0 0.0 0.00 0.00 0.00 81 1018.7
20240519113357 42 222 0.0 0.0 0.00 0.00 0.00 79 1018.8
20240519112857 43 214 0.0 1.0 0.00 0.00 0.00 78 1018.6
20240519112355 43 11 0.0 0.0 0.00 0.00 0.00 81 1018.5
20240519111854 43 11 0.0 0.0 0.00 0.00 0.00 82 1018.6
20240519111355 43 312 0.0 0.0 0.00 0.00 0.00 80 1018.5
20240519110853 43 22 0.0 0.0 0.00 0.00 0.00 80 1018.4
20240519110352 43 47 0.0 0.0 0.00 0.00 0.00 80 1018.6
20240519105852 43 301 0.0 0.0 0.00 0.00 0.00 76 1018.7
20240519105351 43 284 0.0 0.0 0.00 0.00 0.00 76 1018.4
20240519104849 43 16 0.0 0.0 0.00 0.00 0.00 78 1018.7
20240519104349 43 288 0.0 0.0 0.00 0.00 0.00 77 1018.5
20240519103848 43 9 0.0 0.0 0.00 0.00 0.00 79 1018.5
20240519103347 43 9 0.0 0.0 0.00 0.00 0.00 80 1018.7
20240519102846 43 75 1.0 1.0 0.00 0.00 0.00 81 1018.2
20240519102346 43 227 0.0 0.0 0.00 0.00 0.00 76 1018.4
20240519101845 43 342 0.0 0.0 0.00 0.00 0.00 79 1018.4
20240519101345 42 256 0.0 1.0 0.00 0.00 0.00 78 1018.4
20240519100844 43 11 0.0 0.0 0.00 0.00 0.00 82 1018.5
20240519100343 44 63 0.0 1.0 0.00 0.00 0.00 78 1018.2
20240519095843 43 6 0.0 0.0 0.00 0.00 0.00 76 1018.4
20240519095341 43 255 0.0 0.0 0.00 0.00 0.00 74 1018.2
20240519094840 43 285 0.0 1.0 0.00 0.00 0.00 75 1018.5